This is the latest recevied weather packets stored in our database for station/object IZ5MJO-13. If no packets are shown the sender has not sent any weather packets the latest 10 day(s).
| Time | Temp. | Humidity | Pressure | Rain* | Wind** | Luminosity | Snow |
|---|---|---|---|---|---|---|---|
| 1787447983 | 19.44° C | 53% | 1006.8 hPa | - | - | - | - |
| 1787447083 | 19.44° C | 53% | 1006.8 hPa | - | - | - | - |
| 1787446183 | 19.44° C | 54% | 1006.7 hPa | - | - | - | - |
| 1787445283 | 19.44° C | 54% | 1006.8 hPa | - | - | - | - |
| 1787444391 | 20° C | 54% | 1006.9 hPa | - | - | - | - |
| 1787443490 | 20° C | 54% | 1006.8 hPa | - | - | - | - |
| 1787442590 | 20.56° C | 53% | 1006.8 hPa | - | - | - | - |
| 1787441690 | 20.56° C | 53% | 1007.1 hPa | - | - | - | - |
| 1787440790 | 20.56° C | 52% | 1007.2 hPa | - | - | - | - |
| 1787439890 | 21.11° C | 49% | 1007.1 hPa | - | - | - | - |
| 1787438989 | 21.11° C | 49% | 1007.2 hPa | - | - | - | - |
| 1787438089 | 21.11° C | 51% | 1007.1 hPa | - | - | - | - |
| 1787437189 | 21.11° C | 50% | 1007.1 hPa | - | - | - | - |
| 1787436289 | 21.11° C | 48% | 1007.3 hPa | - | - | - | - |
| 1787435389 | 21.11° C | 48% | 1007.1 hPa | - | - | - | - |
| 1787434488 | 21.67° C | 48% | 1007.1 hPa | - | - | - | - |
| 1787433588 | 21.67° C | 45% | 1007 hPa | - | - | - | - |
| 1787432688 | 21.67° C | 40% | 1007 hPa | - | - | - | - |
| 1787431787 | 21.67° C | 40% | 1006.9 hPa | - | - | - | - |
| 1787430887 | 22.22° C | 37% | 1006.7 hPa | - | - | - | - |
| 1787429987 | 22.22° C | 37% | 1006.6 hPa | - | - | - | - |
| 1787429087 | 22.78° C | 36% | 1006.7 hPa | - | - | - | - |
| 1787428187 | 23.33° C | 34% | 1006.7 hPa | - | - | - | - |
| 1787427287 | 23.89° C | 33% | 1006.5 hPa | - | - | - | - |
| 1787426386 | 23.89° C | 32% | 1006.3 hPa | - | - | - | - |
* Rain since midnight (hover to see other rain measurements)
** Current wind speed in m/s (hover to see current wind gust speed)